星链-32749 (STARLINK-32749)

导读

STARLINK-32749是美国SpaceX星链星座的卫星,于2025年1月6日发射入轨,隶属于Starlink低轨互联网星座组网计划。作为星链大规模部署的新增卫星,它承载着为全球提供高速低延迟卫星互联网服务的任务,延续了星链星座在通信、导航等领域的部署规划,进一步完善了美国低轨卫星星座的覆盖能力。

基本信息
目录编号:
62508
目录名称:
STARLINK-32749
国际标识:
2025-003X
轨道中心:
EARTH
卫星名称:
星链-32749
卫星全名:
星链-32749 (STARLINK-32749)
卫星状态:
在轨 (已飞行607 天)
发射日期:
2025-01-06 UTC
国别 :
美国 (US)
星等 :
--
轨道信息
数据来源 国际轨道数据
星历时间: 2026-09-04T23:40:13+0800
15小时前
查看轨道信息
半长轴: 6861.176km
偏心率: 0.0001555
轨道倾角: 43.000°
近地点辐角 268.523°
升交点赤经 358.107°
平近点角 91.545°
近地点: 481.972km
远地点: 484.106km
周期: 94.267分钟
每日圈数: 15.275835
详细信息
固有亮度:
5
最大亮度:
2.5
卫星平台:
Starlink V1.0
覆盖范围:
全球
运营商:
太空探索技术公司
运营商所在国:
美国
制造商(研发单位):
太空探索技术公司
制造商所在国:
美国
使用方式:
暂无
卫星简介
Starlink 计划是 SpaceX 推出的全球卫星互联网项目,通过发射低轨道卫星,为全球尤其是偏远地区提供高速、低延迟的互联网服务。自 2019 年起,Starlink 已部署数千颗卫星,旨在缩小全球数字鸿沟,推动互联网普及。该项目还为军事、航空等行业提供通信支持,带来广泛经济效益。
2D轨道图
3D轨道图
轨道高度分析图
轨道倾角分析图
轨道综合分析图
查看轨道综合分析图
交会数据列表
事件ID 空间交会对象 最接近时刻(TCA) 交会距离 交会风险概率(CRP) 交会风险指数(CRI) 操作
CDM_260906-175606-250806-394421
2026-09-06T
17:56:06+0000
2.950 km
极远距离
1.25072E-6 低风险 0.37